Regional Weather Roundup
Issued by NWS

Home | Current Version | Previous Version | Text Only | Print | Product List | Glossary On
Versions: 1 2 3 4 5 6 7 8 9 10 11 12 13 14 15 16 17 18 19 20 21 22 23 24 25 26 27 28 29 30 31 32 33 34 35 36 37 38 39 40 41 42 43 44 45 46 47 48 49 50
971
ASUS43 KDTX 181601
RWRMI
MICHIGAN HOURLY REGIONAL WEATHER ROUNDUP
NATIONAL WEATHER SERVICE DETROIT/PONTIAC MI
1100 AM EST SUN FEB 18 2018

NOTE: "FAIR" INDICATES FEW OR NO CLOUDS BELOW 12,000 FEET WITH NO
SIGNIFICANT WEATHER AND/OR OBSTRUCTION TO VISIBILITY.

MIZ047>049-052>055-059>063-066>070-074>076-081>083-181700-
SOUTHEAST LOWER MICHIGAN

CITY           SKY/WX    TMP DP  RH WIND       PRES   REMARKS
ADRIAN         FAIR      30  23  75 S10       30.32F WCI  21
ALMA           PTSUNNY   33  27  77 S9        30.26S WCI  25
ANN ARBOR      FAIR      32  23  69 S7        30.30F WCI  26
BAD AXE        FAIR      32  21  64 SW13      30.29S WCI  22
CARO           CLOUDY    33  25  70 S13       30.28F WCI  24
DETROIT CITY   FAIR      34  23  64 SW5       30.33S WCI  30
DETROIT        FAIR      34  23  64 S5        30.33F WCI  30
FLINT          FAIR      31  21  66 S9        30.28F WCI  23
GROSSE ILE     CLOUDY    34  25  69 S9        30.33F WCI  27
HILLSDALE      FAIR      32  23  69 SE9       30.28S WCI  24
HOWELL         FAIR      33  25  71 SW8       30.28F WCI  26

CITY           SKY/WX    TMP DP  RH WIND       PRES   REMARKS
JACKSON        FAIR      33  24  69 SE7       30.27F WCI  27
LAMBERTVILLE   FAIR      32  24  72 S7        30.33F WCI  26
LANSING        FAIR      32  25  75 S7        30.27F WCI  26
LAPEER         PTSUNNY   32  21  64 W8        30.30F WCI  25
MASON          FAIR      33  22  62 S8        30.27F WCI  27
MONROE         FAIR      33  24  68 SW6       30.33F WCI  28
MT. CLEMENS    MOSUNNY   37  24  58 CALM      30.31F
PONTIAC        FAIR      31  22  69 SW3       30.28F
PORT HOPE        N/A     33  21  61 VRB7      30.27R WCI  27
PORT HURON     FAIR      34  19  55 W3        30.33S
TRI CITIES     CLOUDY    32  22  66 S8        30.27F WCI  25
MIDLAND        CLOUDY    33  23  65 SW6       30.25F WCI  28
TROY           FAIR      35  23  62 CALM      30.33F
SAGINAW HB     PTSUNNY   32  25  74 SW8       30.27F WCI  25
$$
MIZ043>046-050>051-056>058-064>065-071>073-077>080-181700-
SOUTHWEST LOWER MICHIGAN

CITY           SKY/WX    TMP DP  RH WIND       PRES   REMARKS
BATTLE CREEK   FAIR      31  25  78 S8        30.27F WCI  23
BENTON HARBOR  FAIR      30  23  75 S13       30.27R HAZE    WCI  20
BIG RAPIDS     PTSUNNY   32  21  64 SW10      30.21S WCI  23
COLDWATER      FAIR      31  24  75 S10       30.28F WCI  22
FREMONT        FAIR      31  22  69 S10       30.23S WCI  23
HOLLAND        FAIR      34  26  72 S9        30.25R WCI  27
GRAND RAPIDS   PTSUNNY   33  24  69 S10       30.26R WCI  25
IONIA          FAIR      33  25  72 S10       30.26S WCI  24
KALAMAZOO      FAIR      31  22  69 S8        30.28S WCI  23
LUDINGTON      FAIR      31  22  68 S10       30.20S WCI  22
MARSHALL       FAIR      32  23  71 S9        30.27F WCI  24
MOUNT PLEASANT PTSUNNY   33  22  62 SW10      30.24S WCI  25
MUSKEGON       PTSUNNY   32  26  78 S15       30.24F WCI  22
SOUTH HAVEN    FAIR      32  24  73 S10       30.27S WCI  24
$$
MIZ016>042-181700-
NORTHERN LOWER MICHIGAN

CITY           SKY/WX    TMP DP  RH WIND       PRES   REMARKS
ALPENA         CLOUDY    32  22  66 SW8       30.23S WCI  25
BEAVER ISLAND  FAIR      28  14  57 CALM      30.18S
BELLAIRE       CLOUDY    31  23  73 S9        30.20S WCI  22
CADILLAC       FAIR      30  21  69 S9        30.17S WCI  22
CHARLEVOIX     CLOUDY    27  20  75 E3        30.21F
FRANKFORT      FAIR      32  22  68 S9        30.18F WCI  24
GAYLORD        CLOUDY    27  20  75 SW8       30.16S WCI  19
GRAYLING       FAIR      29  19  64 SW8       30.18R WCI  21
HARBOR SPRINGS CLOUDY    27  13  54 CALM      30.19F
HOUGHTON LAKE  PTSUNNY   29  20  69 S12       30.20S WCI  19
MANISTEE       FAIR      34  20  56 SW12      30.20S WCI  25
OSCODA         PTSUNNY   32  19  56 SW7G20    30.25F WCI  26
PELLSTON       PTSUNNY   26  16  65 SE5       30.19S WCI  20
ROGERS CITY    CLOUDY    29  18  64 S5        30.23R WCI  23
TRAVERSE CITY  FAIR      33  21  61 SW8       30.18S WCI  26
$$
MIZ007>008-015-181700-
EASTERN UPPER MICHIGAN

CITY           SKY/WX    TMP DP  RH WIND       PRES   REMARKS
KINROSS        FAIR      25  13  60 S6        30.16S WCI  18
MACKINAC ISLAN FAIR      23  14  69 S3        30.18F
NEWBERRY       FAIR      21  10  62 CALM      30.14S
S. S. MARIE    FAIR      27  15  61 S6        30.16S WCI  20
MUNISING         N/A     22  11  62 S8        30.15R WCI  12
$$
MIZ004>006-011>014-085-181700-
CENTRAL UPPER MICHIGAN

CITY           SKY/WX    TMP DP  RH WIND       PRES   REMARKS
MANISTIQUE     PTSUNNY   21  10  61 CALM      30.17R
ESCANABA       CLOUDY    22  20  92 E3        30.18R
MENOMINEE      CLOUDY    23  18  81 SW3       30.19R
SAWYER-GWINN   CLOUDY    16   7  67 S8        30.11R WCI   5
$$
MIZ001>003-009>011-084-181700-
WESTERN UPPER MICHIGAN

CITY           SKY/WX    TMP DP  RH WIND       PRES   REMARKS
IRON MOUNTAIN  CLOUDY    18  11  74 CALM      30.11R
HOUGHTON       CLOUDY    19   7  59 S7        30.06R WCI  10
COPPER HARBOR    N/A     21   7  54 VRB3      30.10R
IRONWOOD       LGT SNOW  15  12  88 SE9       29.99F FOG     WCI   3
$$

ABBREVIATIONS USED IN REMARKS
   TC - TEMPERATURE IN CELSIUS
  WCI - WIND CHILL INDEX
   HX - HEAT INDEX
  VSB - VISIBILITY





USA.gov is the U.S. government's official web portal to all federal, state and local government web resources and services.